Location: Lane
(33.5226°N, 79.8788°W)
Time: 20:16:34
(UTC+00:00)

Courier 1B Rocket - Pass Details

Date: 04 October 2022
Orbit: 920 x 1202 km, 28.2° (Epoch: 05 December)

Event Time Altitude Azimuth Distance (km) Brightness Sun altitude
Rises 02:31:35 0° 265° (W) 3,668 8.6 -43.3°
Reaches altitude 10° 02:34:21 10° 261° (W) 2,685 7.7 -43.8°
Enters shadow 02:35:15 14° 258° (WSW) 2,380 7.4 -43.9°
